Location: Beuvrequen
(50.8014°N, 1.6652°E)
Time: 01:56:12
(UTC+00:00)

SKYMED 2 - Pass Details

Date: 16 October 2021
Orbit: 621 x 623 km, 97.9° (Epoch: 28 November)

Event Time Altitude Azimuth Distance (km) Brightness Sun altitude
Rises 17:49:08 0° 17° (NNE) 2,919 6.8 -8.7°
Reaches altitude 10° 17:51:23 10° 22° (NNE) 2,007 5.9 -9.1°
Maximum altitude 17:55:40 55° 100° (E) 753 3.7 -9.7°
Drops below altitude 10° 17:59:55 10° 179° (S) 1,989 6.2 -10.4°
Sets 18:02:08 0° 184° (S) 2,890 7.1 -10.8°
